SL-8 R/B, 15006

Orbit data source: Space-Track

SL-8 R/B, 15006 is space debris in LEO originally from a launch on Mon, 28 May 1984 UTC launched from the Plesetsk Missile And Space Complex (PKMTR). Debris objects in space refer to the collection of defunct objects orbiting the Earth. Examples of debris include non-operational satellites, rocket bodies, and fragments generated from explosions, collisions, or faulty payload assembly.

Loading next visibility...
Identifier
15006, 1984-052J
Orbit
LEO
Country
Flag of CISCIS
Related business
Manufacturer
Omsk Av. Zav.
Mission
Spacecraft
Bus & Motor
S3, Unknown motor
Mass
1,434 kg wet, 1,434 kg dry
Launch date (UTC)
1984-05-28 (42 years ago)
Launch vehicle
Unknown
Launch site
Plesetsk Missile And Space Complex (PKMTR)
Object type
Payload
Rocket body
Debris
Shape & HBR
Unknown
Radar Cross Section
Large (>1 m²)

Expand to show TLE details & history
Last TLE update: 5 hours ago

TLE from 5 hours ago
0 SL-8 R/B
1 15006U 84052J   26127.11182191 -.00000052  00000-0 -33008-3 0  9999
2 15006  74.0112 266.3435 0132779 341.7613 190.9799 12.23746571873608
Epoch: 2026-05-07T02:41Z
TLE epoch observation values (Epoch: 2026-05-07T02:41:01.413Z)
Latitude
7.19088°
Longitude
179.0631°
Altitude
1,681.717 km
Speed
6.988 km/s
True Right ascension
05h 37m 07s
True Declination
7° 09' 11"
Sunlit
Object was in daylight at epoch
Visualization orbit readout
Latitude
Unknown
Longitude
Unknown
Altitude
Unknown
Speed
Unknown
Apparent Right ascension
Unknown
Apparent Declination
Unknown
Sunlit
N/A
Visualization observer readout
Local Sidereal Time
15:55:10
Azimuth
Unknown
Elevation
Unknown
Doppler factor
Unknown
Orbital elements
Apogee altitude
1,679.721 km
Perigee altitude
1,468.542 km
Semi-major axis
7,952.268 km
Eccentricity
0.01328
Inclination
74.0112°
RAAN
266.3435°
Arg. of periapsis
341.7613°
True anomaly
190.69475°
Mean anomaly
190.9799°
Eccentric anomaly
190.83687°
Mean motion
3.0606 °/min
Orbital period
117.62 mins
BSTAR
-0.00033008
Loading maneuver chart data...
Computing Atmospheric mass density...
Loading historical data...
Loading historical data...
Loading historical data...
Loading historical data...
Loading historical data...
Loading historical data...
Loading historical data...

Documentation

Showing up to 5 results
|